Regional Weather Roundup
Issued by NWS

Home | Current Version | Previous Version | Graphics & Text | Print | Product List | Glossary On
Versions: 1 2 3 4 5 6 7 8 9 10 11 12 13 14 15 16 17 18 19 20 21 22 23 24 25 26 27 28 29 30 31 32 33 34 35 36 37 38 39 40 41 42 43 44 45 46 47 48 49 50
000
ASUS43 KLOT 191203
RWRIL

ILLINOIS REGIONAL WEATHER ROUNDUP
NATIONAL WEATHER SERVICE CHICAGO/ROMEOVILLE IL
600 AM CST SUN NOV 19 2017

NOTE: "FAIR" INDICATES FEW OR NO CLOUDS BELOW 12,000 FEET WITH NO
SIGNIFICANT WEATHER AND/OR OBSTRUCTIONS TO VISIBILITY.

* THESE STATIONS ARE NOT UNDER NWS QUALITY CONTROL. THEY ALSO MAY NOT
  REPORT WEATHER SUCH AS PRECIPITATION OR FOG.

ILZ001-002-007-009-015-016-024-191300-
NORTHWEST ILLINOIS

CITY           SKY/WX    TMP DP  RH WIND       PRES   REMARKS
MOLINE         CLEAR     24  15  68 NW16      30.09R WCI  11
6HR MIN TEMP:  24; 6HR MAX TEMP:  30;

STERLING*        N/A    N/A N/A N/A MISG        N/A
SAVANNA*       CLEAR     24  17  73 W14       30.05S WCI  12
$$

ILZ003-004-008-010-011-017-018-191300-
NORTH CENTRAL ILLINOIS

CITY           SKY/WX    TMP DP  RH WIND       PRES   REMARKS
ROCKFORD       CLOUDY    27  19  72 W14G20    30.01R WCI  16
6HR MIN TEMP:  27; 6HR MAX TEMP:  34;

FREEPORT*      PTCLDY    24  18  80 W9        30.02R WCI  14
ROCHELLE*      MOCLDY    26  20  76 NW16      30.02R WCI  14
DE KALB*       CLOUDY    28  22  78 W20G25    29.99R WCI  15
PERU*          CLOUDY    27  21  80 W16       30.04R WCI  14
$$

ILZ005-006-012>014-019>023-191300-
NORTHEAST ILLINOIS

CITY           SKY/WX    TMP DP  RH WIND       PRES   REMARKS
CHICAGO-OHARE  CLOUDY    31  20  63 W12G20    29.94R WCI  22
6HR MIN TEMP:  31; 6HR MAX TEMP:  38;

CHICAGO-MIDWAY MOCLDY    31  21  66 NW14      29.97R WCI  21
6HR MIN TEMP:  31; 6HR MAX TEMP:  38;

AURORA         CLOUDY    30  23  75 W15       29.98R WCI  19
6HR MIN TEMP:  29; 6HR MAX TEMP:  36;

LANSING*       CLOUDY    32  24  72 W7        29.94F WCI  25
JOLIET*        CLOUDY    31  22  68 NW9       29.99R WCI  23
WAUKEGAN       CLOUDY    30  19  63 W10G20    29.94R WCI  21
6HR MIN TEMP:  30; 6HR MAX TEMP:  36;

DUPAGE AIRPORT CLOUDY    29  20  69 NW15      29.96R WCI  18
6HR MIN TEMP:  29; 6HR MAX TEMP:  36;

KANKAKEE*      CLOUDY    31  24  73 W12G17    29.98F WCI  22
WHEELING       CLOUDY    32  21  64 NW16G22   29.96R WCI  21
6HR MIN TEMP:  32; 6HR MAX TEMP:  38;

MORRIS*        CLOUDY    30  24  78 W15       30.00R WCI  19
ROMEOVILLE*    MOCLDY    29  22  76 NW13G20   29.99R WCI  19
NORTHERLY ISL    N/A     33  21  61 W8          N/A  WCI  26
$$

LMZ740>746-191300-
SOUTHERN LAKE MICHIGAN

STATION/POSITION SKY/WX   TEMP    WIND        PRES    VSBY  WAVE
                          AIR SEA DIR/SP/G                  HT/PER
                          (F)     (DEG/KT/KT) (MB)    (MI)  (FT/S)
SOUTHERN BUOY              36 49  330/ 19/ 27 1012.2          7/ 7
HARRISON CRIB              33     310/ 13/ 15   N/A
BURNHAM HARBOR             33     280/  9/ 13   N/A
BURNS HARBOR               35     310/ 19/ 23 1013.9R
MICHIGAN CITY              34     270/ 25/ 28   N/A
$$

ILZ025>027-034>036-040-047-049-050-058-095>099-191300-
WEST-CENTRAL ILLINOIS

CITY           SKY/WX    TMP DP  RH WIND       PRES   REMARKS
QUINCY         CLEAR     27  16  63 NW14      30.14R WCI  16
GALESBURG*     CLEAR     24  19  81 W12G18    30.10R WCI  12
MACOMB*        CLEAR     25  18  77 NW16      30.13R WCI  12
JACKSONVILLE*  PTCLDY    27  19  70 W10G18    30.11R WCI  17
PITTSFIELD*    CLEAR     29  20  68 W13       30.15R WCI  19
$$

ILZ028>032-037-038-041>044-048-051>054-059>061-191300-
CENTRAL ILLINOIS

CITY           SKY/WX    TMP DP  RH WIND       PRES   REMARKS
PONTIAC        CLOUDY    28  25  88 NW17      30.03R WCI  16
BLOOMINGTON    PTCLDY    24  20  84 W17       30.03S WCI  11
DECATUR        PTCLDY    28  22  78 NW13      30.05S WCI  17
PEORIA         CLEAR     25  18  74 NW10      30.07R WCI  15
6HR MIN TEMP:  25; 6HR MAX TEMP:  33;

LACON*         CLOUDY    26  19  77 NW16      30.05R WCI  13
LINCOLN*       CLEAR     28  21  77 NW8       30.07R WCI  19
SPRINGFIELD    CLEAR     28  19  69 NW16G24   30.10R WCI  16
6HR MIN TEMP:  28; 6HR MAX TEMP:  34;

TAYLORVILLE    PTCLDY    28  19  70 NW16      30.09S WCI  16
6HR MIN TEMP:  28; 6HR MAX TEMP:  35;

$$

ILZ033-039-045-046-055>057-062-063-191300-
EAST-CENTRAL ILLINOIS

CITY           SKY/WX    TMP DP  RH WIND       PRES   REMARKS
CHAMPAIGN      CLOUDY    31  25  78 NW15      30.03R WCI  20
DANVILLE*      CLOUDY    31  27  84 W14G20    29.98R WCI  21
RANTOUL*       CLOUDY    31  27  82 NW15      30.01S WCI  21
MATTOON        CLOUDY    30  24  78 NW18      30.06R WCI  18
PARIS*         CLOUDY    32  28  86 W15       30.04R WCI  22
$$

ILZ079-100>102-191300-
SOUTHWEST ILLINOIS

CITY           SKY/WX    TMP DP  RH WIND       PRES   REMARKS
ALTON          PTCLDY    30  23  76 NW8       30.13S WCI  22
BELLEVILLE     CLEAR     31  21  66 NW12G18   30.12R WCI  22
CAHOKIA*       PTCLDY    32  19  58 NW15      30.15R WCI  22
SPARTA*        CLEAR     32  23  70 NW8       30.15R WCI  25
$$

ILZ064>066-069>071-074>076-080>082-084>086-088>090-092>094-191300-
SOUTH-CENTRAL ILLINOIS

CITY           SKY/WX    TMP DP  RH WIND       PRES   REMARKS
CARBONDALE     CLEAR     32  24  72 W5        30.14R WCI  27
6HR MIN TEMP:  32; 6HR MAX TEMP:  41;

CAIRO*         CLEAR     35  25  68 NW5       30.15R WCI  31
EFFINGHAM*     CLEAR     31  25  78 W14       30.10R WCI  20
MARION         CLEAR     34  23  64 CALM      30.14R
MT. VERNON     CLEAR     31  21  66 VRB3      30.11R
CENTRALIA*     CLEAR     32  24  73 NW9       30.11R WCI  24
SALEM*         CLEAR     32  22  66 NW10G17   30.10R WCI  24
METROPOLIS*    PTCLDY    35  24  66 NW5       30.14R WCI  31
$$

ILZ067-068-072-073-078-083-087-091-191300-
SOUTHEAST ILLINOIS

CITY           SKY/WX    TMP DP  RH WIND       PRES   REMARKS
LAWRENCEVILLE  CLOUDY    35  27  72 NW15      30.07R WCI  25
FLORA*         CLEAR     32  25  74 NW7       29.99R WCI  26
FAIRFIELD*     CLEAR     32  23  69 CALM      30.10R
HARRISBURG*    CLEAR     33  23  65 NW10G16   30.13R WCI  25
ROBINSON*      CLOUDY    32  27  82 W14       30.07R WCI  22
CARMI*         CLEAR     32  25  76 NW15G22   30.10R WCI  22
$$

ABBREVIATIONS USED IN REMARKS
   TC - TEMPERATURE IN CELSIUS
  WCI - WIND CHILL INDEX
   HX - HEAT INDEX
  VSB - VISIBILITY
$$




USA.gov is the U.S. government's official web portal to all federal, state and local government web resources and services.